K4FB Weather Reports


time (UTC)temp
C
wind
direction
speed
KPH
gust
KPH
rain 1hr
cm
rain 24hr
cm
rain mn
cm
humidity
%
barometer
mb
20260901083028 24 352 0.0 0.0 0.00 0.00 0.00 93 1016.3
20260901082510 24 352 0.0 0.0 0.00 0.00 0.00 93 1016.2
20260901082003 24 352 0.0 0.0 0.00 0.00 0.00 93 1016.1
20260901081515 24 352 0.0 0.0 0.00 0.00 0.00 93 1016.1
20260901081006 24 352 0.0 0.0 0.00 0.00 0.00 93 1016.1
20260901080507 24 352 0.0 0.0 0.00 0.00 0.00 93 1016.2
20260901080017 23 352 0.0 0.0 0.00 0.00 0.00 93 1016.4
20260901075506 24 352 0.0 0.0 0.00 0.00 0.00 93 1016.4
20260901075011 24 352 0.0 0.0 0.00 0.00 0.00 92 1016.3
20260901074530 24 352 0.0 0.0 0.00 0.00 0.00 93 1016.3
20260901074004 24 352 0.0 0.0 0.00 0.00 0.00 93 1016.3
20260901073507 24 352 0.0 0.0 0.00 0.00 0.00 93 1016.4
20260901073036 24 352 0.0 0.0 0.00 0.00 0.00 93 1016.4
20260901072516 24 352 0.0 0.0 0.00 0.00 0.00 92 1016.4
20260901072003 24 352 0.0 0.0 0.00 0.00 0.00 93 1016.4
20260901071524 24 352 0.0 0.0 0.00 0.00 0.00 93 1016.5
20260901071005 24 352 0.0 0.0 0.00 0.00 0.00 92 1016.5
20260901070504 24 352 0.0 0.0 0.00 0.00 0.00 92 1016.6
20260901070022 24 352 0.0 0.0 0.00 0.00 0.00 92 1016.7
20260901065506 24 352 0.0 0.0 0.00 0.00 0.00 92 1016.7
20260901065006 24 352 0.0 0.0 0.00 0.00 0.00 92 1016.7
20260901064527 24 352 0.0 0.0 0.00 0.00 0.00 92 1016.8
20260901064010 24 351 0.0 0.0 0.00 0.00 0.00 92 1017.0
20260901063509 24 352 0.0 1.6 0.00 0.00 0.00 92 1017.0
20260901063027 24 360 0.0 1.6 0.00 0.00 0.00 92 1017.1
20260901062504 24 12 0.0 1.6 0.00 0.00 0.00 92 1017.2
20260901062012 24 15 0.0 1.6 0.00 0.00 0.00 92 1017.2
20260901061533 24 360 0.0 1.6 0.00 0.00 0.00 92 1017.3
20260901061007 25 351 0.0 1.6 0.00 0.00 0.00 92 1017.4
20260901060509 25 352 0.0 1.6 0.00 0.00 0.00 92 1017.7
20260901060032 25 360 0.0 1.6 0.00 0.00 0.00 92 1017.7
20260901055504 25 21 0.0 1.6 0.00 0.00 0.00 92 1017.7
20260901055007 25 35 0.0 0.0 0.00 0.00 0.00 92 1017.7
20260901054519 25 352 0.0 0.0 0.00 0.00 0.00 92 1017.8
20260901054006 25 352 0.0 0.0 0.00 0.00 0.00 92 1017.8
20260901053505 25 360 0.0 0.0 0.00 0.00 0.00 92 1017.9
20260901053023 25 352 0.0 0.0 0.00 0.00 0.00 92 1017.9
20260901052509 25 352 0.0 1.6 0.00 0.00 0.00 91 1018.0
20260901052009 25 360 0.0 1.6 0.00 0.00 0.00 91 1018.1
20260901051520 25 352 0.0 1.6 0.00 0.00 0.00 91 1018.2
20260901051012 25 352 0.0 0.0 0.00 0.00 0.00 91 1018.2
20260901050513 25 351 0.0 0.0 0.00 0.00 0.00 91 1018.2
20260901050033 25 352 0.0 1.6 0.00 0.00 0.00 91 1018.3
20260901045509 25 360 0.0 1.6 0.00 0.00 0.00 91 1018.3
20260901045014 25 352 0.0 1.6 0.00 0.00 0.00 91 1018.3
20260901044533 25 15 0.0 0.0 0.00 0.00 0.00 91 1018.3
20260901044009 25 15 0.0 1.6 0.00 0.00 0.00 91 1018.3
20260901043506 25 317 0.0 1.6 0.00 0.00 0.00 1018.3
20260901043026 25 308 0.0 1.6 0.00 0.00 0.00 91 1018.4
20260901042509 25 306 0.0 0.0 0.00 0.00 0.00 91 1018.4
20260901042007 25 306 0.0 0.0 0.00 0.00 0.00 91 1018.3
20260901041530 25 306 0.0 0.0 0.00 0.00 0.00 91 1018.5
20260901041011 25 306 0.0 0.0 0.00 0.00 0.00 91 1018.6
20260901040507 25 295 0.0 0.0 0.00 0.00 0.00 91 1018.5
20260901040033 25 295 0.0 0.0 0.00 0.00 0.00 90 1018.6
20260901035512 25 295 0.0 0.0 0.00 0.00 0.00 90 1018.5
20260901035016 25 295 0.0 0.0 0.00 0.00 0.00 90 1018.5
20260901034532 25 295 0.0 0.0 0.00 0.00 0.00 90 1018.4
20260901034011 25 295 0.0 0.0 0.00 0.00 0.00 90 1018.5
20260901033513 25 295 0.0 0.0 0.00 0.00 0.00 90 1018.5
20260901033020 25 295 0.0 0.0 0.00 0.00 0.00 90 1018.6
20260901032511 25 295 0.0 0.0 0.00 0.00 0.00 90 1018.6
20260901032009 25 295 0.0 0.0 0.00 0.00 0.00 1018.7
20260901031543 25 295 0.0 0.0 0.00 0.00 0.00 1018.7
20260901031008 25 295 0.0 0.0 0.00 0.00 0.00 1018.7
20260901030514 25 295 0.0 0.0 0.00 0.00 0.00 89 1018.6
20260901030030 25 295 0.0 0.0 0.00 0.00 0.00 89 1018.7
20260901025514 25 295 0.0 0.0 0.00 0.00 0.00 89 1018.7
20260901025012 25 294 0.0 0.0 0.00 0.00 0.00 89 1018.7
20260901024533 25 294 0.0 0.0 0.00 0.00 0.00 89 1018.6
20260901024016 25 294 0.0 0.0 0.00 0.00 0.00 89 1018.6
20260901023508 25 294 0.0 0.0 0.00 0.00 0.00 88 1018.5
20260901023030 25 294 0.0 0.0 0.00 0.00 0.00 88 1018.5
20260901022520 25 294 0.0 0.0 0.00 0.00 0.00 89 1018.3
20260901022020 25 309 0.0 0.0 0.00 0.00 0.00 88 1018.3
20260901021524 25 302 0.0 0.0 0.00 0.00 0.00 88 1018.2
20260901021012 25 304 0.0 0.0 0.00 0.00 0.00 88 1018.1
20260901020509 26 304 0.0 0.0 0.00 0.00 0.00 88 1018.1
20260901020029 26 304 0.0 0.0 0.00 0.00 0.00 88 1018.1
20260901015514 26 304 0.0 0.0 0.00 0.00 0.00 88 1018.1
20260901015016 26 304 0.0 0.0 0.00 0.00 0.00 88 1018.0
20260901014531 26 13 0.0 0.0 0.00 0.00 0.00 87 1018.0
20260901014009 26 13 0.0 0.0 0.00 0.00 0.00 87 1017.9
20260901013519 26 13 0.0 0.0 0.00 0.00 0.00 87 1017.9
20260901013033 26 13 0.0 0.0 0.00 0.00 0.00 87 1017.8
20260901012509 26 13 0.0 1.6 0.00 0.00 0.00 87 1017.8
20260901012018 26 13 0.0 1.6 0.00 0.00 0.00 87 1017.6
20260901011532 26 55 0.0 0.0 0.00 0.00 0.00 87 1017.6
20260901011018 26 72 0.0 0.0 0.00 0.00 0.00 87 1017.6
20260901010508 26 72 0.0 0.0 0.00 0.00 0.00 87 1017.5
20260901010035 26 74 0.0 0.0 0.00 0.00 0.00 86 1017.4
20260901005513 26 74 0.0 0.0 0.00 0.00 0.00 86 1017.2
20260901005011 26 74 0.0 0.0 0.00 0.00 0.00 86 1017.2
20260901004534 26 75 0.0 0.0 0.00 0.00 0.00 86 1017.2
20260901004015 26 75 0.0 0.0 0.00 0.00 0.00 86 1017.3
20260901003512 26 75 0.0 0.0 0.00 0.00 0.00 85 1017.3
20260901003027 26 75 0.0 0.0 0.00 0.00 0.00 85 1017.3
20260901002512 26 75 0.0 0.0 0.00 0.00 0.00 85 1017.4
20260901002017 26 75 0.0 1.6 0.00 0.00 0.00 85 1017.4
20260901001534 26 75 0.0 1.6 0.00 0.00 0.00 85 1017.4
20260901001012 26 75 0.0 1.6 0.00 0.00 0.00 84 1017.4
20260901000521 26 75 0.0 1.6 0.00 0.00 0.00 84 1017.4
20260901000033 26 81 0.0 1.6 0.00 0.00 0.00 84 1017.4
20260831235511 26 84 0.0 1.6 0.00 0.00 0.00 84 1017.5
20260831235011 26 87 0.0 1.6 0.00 0.00 0.00 84 1017.5
20260831234527 26 111 0.0 1.6 0.00 0.00 0.00 84 1017.4
20260831234011 26 95 0.0 1.6 0.00 0.00 0.00 84 1017.3
20260831233516 26 124 0.0 0.0 0.00 0.00 0.00 84 1017.4
20260831233030 26 107 0.0 0.0 0.00 0.00 0.00 84 1017.4
20260831232514 26 107 0.0 0.0 0.00 0.00 0.00 84 1017.3
20260831232011 26 17 0.0 3.2 0.00 0.00 0.00 84 1017.2
20260831231536 26 72 0.0 4.8 0.00 0.00 0.00 84 1017.3
20260831231019 26 59 0.0 4.8 0.00 0.00 0.00 84 1017.3
20260831230519 26 49 0.0 4.8 0.00 0.00 0.00 83 1017.4
20260831230034 26 47 0.0 4.8 0.00 0.00 0.00 84 1017.4
20260831225515 26 46 0.0 4.8 0.00 0.00 0.00 83 1017.4
20260831225018 26 49 0.0 3.2 0.00 0.00 0.00 84 1017.4
20260831224527 26 70 0.0 6.4 0.00 0.00 0.00 84 1017.5
20260831224010 26 98 0.0 6.4 0.00 0.00 0.00 83 1017.6
20260831223511 26 58 0.0 3.2 0.00 0.00 0.00 83 1017.5
20260831223024 26 35 0.0 3.2 0.00 0.00 0.00 83 1017.5
20260831222514 27 77 0.0 4.8 0.00 0.00 0.00 83 1017.5
20260831222013 27 59 0.0 9.7 0.00 0.00 0.00 83 1017.5
20260831221530 27 78 0.0 9.7 0.00 0.00 0.00 83 1017.5
20260831221013 27 36 3.2 9.7 0.00 0.00 0.00 82 1017.4
20260831220514 27 55 1.6 8.0 0.00 0.00 0.00 83 1017.4
20260831220031 27 71 0.0 11.3 0.00 0.00 0.00 83 1017.4
20260831215510 27 24 3.2 11.3 0.00 0.00 0.00 82 1017.4
20260831215007 27 80 1.6 11.3 0.00 0.00 0.00 82 1017.4
20260831214521 27 60 1.6 14.5 0.00 0.00 0.00 82 1017.3
20260831214006 27 89 4.8 16.1 0.00 0.00 0.00 81 1017.4
20260831213512 27 74 3.2 16.1 0.00 0.00 0.00 81 1017.3
20260831213026 27 78 1.6 11.3 0.00 0.00 0.00 80 1017.5
20260831212515 27 27 1.6 11.3 0.00 0.00 0.00 79 1017.6
20260831212012 28 19 3.2 9.7 0.00 0.00 0.00 79 1017.7
20260831211527 28 350 1.6 14.5 0.00 0.00 0.00 79 1017.7
20260831211017 28 92 0.0 19.3 0.00 0.00 0.00 79 1017.6
20260831210505 28 21 6.4 19.3 0.00 0.00 0.00 79 1017.6
20260831210027 28 57 6.4 19.3 0.00 0.00 0.00 79 1017.7
20260831205516 28 38 1.6 20.9 0.00 0.00 0.00 79 1017.7
20260831205016 28 69 8.0 24.1 0.00 0.00 0.00 79 1017.5
20260831204519 28 70 9.7 30.6 0.00 0.00 0.00 78 1017.7
20260831204011 28 67 9.7 30.6 0.00 0.00 0.00 77 1017.5
20260831203512 29 94 9.7 30.6 0.00 0.00 0.00 78 1017.3
20260831203024 29 30 12.9 30.6 0.00 0.00 0.00 78 1017.1
20260831202515 28 78 16.1 25.7 0.00 0.00 0.00 79 1017.1
20260831202014 28 118 8.0 25.7 0.00 0.00 0.00 79 1017.1
20260831201535 28 19 9.7 32.2 0.00 0.00 0.00 79 1017.1
20260831201014 28 135 14.5 32.2 0.00 0.00 0.00 78 1017.1
20260831200514 28 36 11.3 37.0 0.00 0.00 0.00 78 1017.2
20260831200035 28 38 14.5 37.0 0.00 0.00 0.00 76 1017.1
20260831195519 30 31 16.1 38.6 0.00 0.00 0.00 73 1017.3
20260831195011 31 11 12.9 38.6 0.00 0.00 0.00 69 1017.5
20260831194556 32 73 16.1 37.0 0.00 0.00 0.00 64 1017.4
20260831194019 33 98 3.2 14.5 0.00 0.00 0.00 62 1017.0
20260831193511 33 111 0.0 6.4 0.00 0.00 0.00 62 1016.7
20260831193018 33 192 1.6 9.7 0.00 0.00 0.00 57 1016.7
20260831192504 33 84 1.6 9.7 0.00 0.00 0.00 56 1016.6
20260831192008 33 105 1.6 6.4 0.00 0.00 0.00 58 1016.6
20260831191527 33 189 0.0 3.2 0.00 0.00 0.00 57 1016.6
20260831191011 33 115 0.0 4.8 0.00 0.00 0.00 58 1016.5
20260831190506 34 108 0.0 4.8 0.00 0.00 0.00 57 1016.6
20260831190023 34 65 0.0 6.4 0.00 0.00 0.00 58 1016.7
20260831185514 34 62 0.0 6.4 0.00 0.00 0.00 58 1016.8
20260831185018 35 54 0.0 9.7 0.00 0.00 0.00 57 1016.8
20260831184516 35 92 0.0 9.7 0.00 0.00 0.00 58 1016.8
20260831184006 35 254 0.0 6.4 0.00 0.00 0.00 58 1016.9
20260831183508 35 82 1.6 6.4 0.00 0.00 0.00 59 1017.0
20260831183012 35 176 0.0 6.4 0.00 0.00 0.00 60 1017.0
20260831182509 35 43 0.0 4.8 0.00 0.00 0.00 59 1017.0
20260831182013 35 112 0.0 6.4 0.00 0.00 0.00 61 1017.1
20260831181528 34 11 0.0 11.3 0.00 0.00 0.00 62 1017.2
20260831181011 34 33 3.2 11.3 0.00 0.00 0.00 61 1017.2
20260831180512 33 352 1.6 11.3 0.00 0.00 0.00 61 1017.2
20260831180028 33 312 0.0 8.0 0.00 0.00 0.00 61 1017.3
20260831175507 33 360 1.6 9.7 0.00 0.00 0.00 62 1017.4
20260831175008 33 325 1.6 9.7 0.00 0.00 0.00 62 1017.5
20260831174543 33 17 3.2 12.9 0.00 0.00 0.00 64 1017.5
20260831174017 33 60 1.6 12.9 0.00 0.00 0.00 64 1017.7
20260831173507 33 46 1.6 8.0 0.00 0.00 0.00 64 1017.7
20260831173015 33 340 0.0 8.0 0.00 0.00 0.00 63 1017.8
20260831172509 33 347 3.2 8.0 0.00 0.00 0.00 65 1017.9
20260831172007 33 5 0.0 8.0 0.00 0.00 0.00 66 1018.0
20260831171538 33 103 0.0 9.7 0.00 0.00 0.00 65 1018.1
20260831171010 33 34 3.2 9.7 0.00 0.00 0.00 67 1018.0
20260831170518 33 325 0.0 9.7 0.00 0.00 0.00 68 1018.1
20260831170045 33 53 0.0 9.7 0.00 0.00 0.00 70 1018.2
20260831165513 33 53 1.6 8.0 0.00 0.00 0.00 70 1018.4
20260831165012 32 97 0.0 12.9 0.00 0.00 0.00 72 1018.4
20260831164533 33 35 3.2 12.9 0.00 0.00 0.00 70 1018.4
20260831164009 32 74 0.0 11.3 0.00 0.00 0.00 70 1018.4
20260831163513 32 80 1.6 11.3 0.00 0.00 0.00 72 1018.5
20260831163036 32 67 1.6 8.0 0.00 0.00 0.00 71 1018.6
20260831162511 32 29 0.0 8.0 0.00 0.00 0.00 72 1018.6
20260831162007 32 103 0.0 9.7 0.00 0.00 0.00 75 1018.7
20260831161518 32 44 1.6 12.9 0.00 0.00 0.00 72 1018.7
20260831161011 32 5 1.6 12.9 0.00 0.00 0.00 72 1018.7
20260831160508 32 5 1.6 12.9 0.00 0.00 0.00 73 1018.8
20260831160032 32 28 0.0 11.3 0.00 0.00 0.00 73 1018.9
20260831155515 32 130 0.0 4.8 0.00 0.00 0.00 72 1018.9
20260831155009 32 5 0.0 6.4 0.00 0.00 0.00 72 1019.0
20260831154559 31 135 0.0 6.4 0.00 0.00 0.00 74 1019.0
20260831154016 31 59 0.0 3.2 0.00 0.00 0.00 73 1019.0
20260831153517 31 120 0.0 3.2 0.00 0.00 0.00 78 1019.0
20260831153020 31 33 0.0 12.9 0.00 0.00 0.00 76 1019.0
20260831152515 31 109 0.0 12.9 0.00 0.00 0.00 77 1019.0
20260831152020 31 5 0.0 3.2 0.00 0.00 0.00 77 1019.0
20260831151525 31 41 0.0 1.6 0.00 0.00 0.00 80 1019.0
20260831151013 31 42 0.0 1.6 0.00 0.00 0.00 80 1019.0
20260831150508 30 22 0.0 0.0 0.00 0.00 0.00 80 1019.0
20260831150025 30 135 0.0 0.0 0.00 0.00 0.00 81 1018.9
20260831145510 30 36 0.0 0.0 0.00 0.00 0.00 80 1018.9
20260831145010 30 13 0.0 0.0 0.00 0.00 0.00 81 1018.8
20260831144532 29 63 0.0 0.0 0.00 0.00 0.00 82 1018.8
20260831144015 29 11 0.0 1.6 0.00 0.00 0.00 82 1018.8
20260831143513 28 9 0.0 1.6 0.00 0.00 0.00 84 1018.8
20260831143035 28 55 0.0 0.0 0.00 0.00 0.00 84 1018.7
20260831142516 28 352 0.0 0.0 0.00 0.00 0.00 86 1018.8
20260831142012 28 61 0.0 0.0 0.00 0.00 0.00 86 1018.9
20260831141531 27 17 0.0 0.0 0.00 0.00 0.00 87 1018.9
20260831141015 27 19 0.0 0.0 0.00 0.00 0.00 87 1018.9
20260831140519 27 55 0.0 0.0 0.00 0.00 0.00 88 1018.9
20260831140032 27 9 0.0 0.0 0.00 0.00 0.00 88 1018.9
20260831135511 27 338 0.0 0.0 0.00 0.00 0.00 88 1018.8
20260831135012 26 321 0.0 0.0 0.00 0.00 0.00 89 1018.9
20260831134525 26 331 0.0 0.0 0.00 0.00 0.00 91 1018.8
20260831134013 26 331 0.0 0.0 0.00 0.00 0.00 91 1018.7
20260831133516 26 330 0.0 0.0 0.00 0.00 0.00 91 1018.7
20260831133030 26 48 0.0 0.0 0.00 0.00 0.00 91 1018.7
20260831132510 26 44 0.0 0.0 0.00 0.00 0.00 91 1018.7
20260831132014 26 329 0.0 0.0 0.00 0.00 0.00 92 1018.7
20260831131513 26 336 0.0 0.0 0.00 0.00 0.00 92 1018.6
20260831131011 25 84 0.0 0.0 0.00 0.00 0.00 92 1018.6
20260831130507 25 146 0.0 3.2 0.00 0.00 0.00 93 1018.8
20260831130016 25 32 0.0 3.2 0.00 0.00 0.00 93 1018.7
20260831125510 25 42 0.0 4.8 0.00 0.00 0.00 93 1018.7
20260831125012 25 55 0.0 4.8 0.00 0.00 0.00 94 1018.7
20260831124524 25 14 0.0 1.6 0.00 0.00 0.00 95 1018.6
20260831124009 25 350 0.0 3.2 0.00 0.00 0.00 1018.6
20260831123510 25 26 0.0 3.2 0.00 0.00 0.00 95 1018.6
20260831123027 24 321 0.0 1.6 0.00 0.00 0.00 95 1018.4
20260831122515 24 321 0.0 3.2 0.00 0.00 0.00 95 1018.2
20260831122008 24 323 0.0 3.2 0.00 0.00 0.00 95 1018.2
20260831121528 23 333 0.0 1.6 0.00 0.00 0.00 95 1018.2
20260831121016 23 5 0.0 1.6 0.00 0.00 0.00 95 1018.2
20260831120506 23 16 0.0 0.0 0.00 0.00 0.00 95 1018.3
20260831120028 23 67 0.0 0.0 0.00 0.00 0.00 95 1018.2
20260831115506 23 67 0.0 0.0 0.00 0.00 0.00 95 1018.1
20260831115007 23 67 0.0 0.0 0.00 0.00 0.00 95 1018.0
20260831114526 23 67 0.0 0.0 0.00 0.00 0.00 95 1018.0
20260831114010 22 67 0.0 0.0 0.00 0.00 0.00 95 1017.9
20260831113513 22 67 0.0 0.0 0.00 0.00 0.00 94 1017.9
20260831113019 22 67 0.0 0.0 0.00 0.00 0.00 94 1017.6
20260831112512 22 67 0.0 0.0 0.00 0.00 0.00 94 1017.5
20260831112012 22 67 0.0 0.0 0.00 0.00 0.00 94 1017.5
20260831111532 22 67 0.0 0.0 0.00 0.00 0.00 94 1017.4
20260831111010 22 67 0.0 0.0 0.00 0.00 0.00 94 1017.3
20260831110512 22 67 0.0 0.0 0.00 0.00 0.00 94 1017.2
20260831110033 22 67 0.0 0.0 0.00 0.00 0.00 94 1017.1
20260831105516 22 67 0.0 0.0 0.00 0.00 0.00 94 1017.0
20260831105011 22 67 0.0 0.0 0.00 0.00 0.00 94 1017.0
20260831104531 22 67 0.0 0.0 0.00 0.00 0.00 94 1016.9
20260831104007 22 67 0.0 0.0 0.00 0.00 0.00 94 1016.9
20260831103507 22 67 0.0 0.0 0.00 0.00 0.00 94 1016.8
20260831103049 22 67 0.0 0.0 0.00 0.00 0.00 94 1016.9
20260831102504 22 67 0.0 0.0 0.00 0.00 0.00 94 1016.9
20260831102004 22 67 0.0 0.0 0.00 0.00 0.00 94 1016.9
20260831101508 22 67 0.0 0.0 0.00 0.00 0.00 94 1017.0
20260831101005 22 67 0.0 0.0 0.00 0.00 0.00 94 1016.8
20260831100504 22 67 0.0 0.0 0.00 0.00 0.00 94 1016.7
20260831100012 22 67 0.0 0.0 0.00 0.00 0.00 93 1016.6
20260831095504 22 67 0.0 0.0 0.00 0.00 0.00 93 1016.7
20260831095003 22 67 0.0 0.0 0.00 0.00 0.00 94 1016.8
20260831094526 22 67 0.0 0.0 0.00 0.00 0.00 93 1016.7
20260831094008 22 67 0.0 0.0 0.00 0.00 0.00 94 1016.7
20260831093503 22 67 0.0 0.0 0.00 0.00 0.00 93 1016.7
20260831093015 22 67 0.0 0.0 0.00 0.00 0.00 93 1016.8
20260831092507 22 67 0.0 0.0 0.00 0.00 0.00 93 1016.9
20260831092002 23 67 0.0 0.0 0.00 0.00 0.00 93 1016.8
20260831091504 23 67 0.0 0.0 0.00 0.00 0.00 93 1016.8
20260831091003 23 67 0.0 0.0 0.00 0.00 0.00 93 1016.7
20260831090506 23 67 0.0 0.0 0.00 0.00 0.00 93 1016.7
20260831090007 23 67 0.0 0.0 0.00 0.00 0.00 93 1016.6
20260831085504 23 67 0.0 0.0 0.00 0.00 0.00 93 1016.7
20260831085005 23 67 0.0 0.0 0.00 0.00 0.00 94 1016.7
20260831084504 23 67 0.0 0.0 0.00 0.00 0.00 93 1016.8
20260831084004 23 67 0.0 0.0 0.00 0.00 0.00 93 1016.8
20260831083507 23 67 0.0 0.0 0.00 0.00 0.00 93 1016.8